Location: Brede
(50.9167°N, 0.6000°E)
Time: 21:51:51
(UTC+00:00)

Tiros 1 - All Passes

Search period start: 25 November 2020 00:00
Search period end: 05 December 2020 00:00
Orbit: 630 x 664 km, 48.4° (Epoch: 25 November)

Date Brightness Start Highest point End Pass type
(mag) Time Alt. Az. Time Alt. Az. Time Alt. Az.
25 Nov - 16:52:24 10° SSW 16:56:37 31° SSE 17:00:48 10° E visible
25 Nov - 18:33:39 10° WSW 18:38:23 61° S 18:43:04 10° E visible
25 Nov - 20:15:41 10° W 20:20:23 59° S 20:25:02 10° ESE visible
25 Nov - 21:58:02 10° W 22:02:05 28° SSW 22:06:05 10° SSE night (unlit)
26 Nov - 15:37:43 10° S 15:40:54 18° SE 15:44:06 10° E daylight
26 Nov - 17:17:47 10° SW 17:22:22 46° SSE 17:26:56 10° E visible
26 Nov - 18:59:33 10° W 19:04:19 66° S 19:09:01 10° E visible
26 Nov - 20:41:41 10° W 20:46:14 45° SSW 20:50:43 10° SE visible
26 Nov - 22:24:38 10° WSW 22:27:39 17° SW 22:30:37 10° S night (unlit)
27 Nov - 16:02:20 10° SSW 16:06:30 30° SSE 16:10:38 10° E daylight
27 Nov - 17:43:30 10° WSW 17:48:14 60° S 17:52:55 10° E visible
27 Nov - 19:25:31 10° W 19:30:15 60° S 19:34:54 10° ESE visible
27 Nov - 21:07:50 10° W 21:11:58 30° SSW 21:16:03 10° SSE visible
28 Nov - 14:47:46 10° S 14:50:48 17° SE 14:53:50 10° ESE daylight
28 Nov - 16:27:40 10° SW 16:32:14 44° SSE 16:36:47 10° E visible
28 Nov - 18:09:24 10° W 18:14:10 66° S 18:18:53 10° E visible
28 Nov - 19:51:32 10° W 19:56:06 46° SSW 20:00:38 10° SE visible
28 Nov - 21:34:22 10° W 21:37:33 18° SW 21:40:42 10° S night (unlit)
29 Nov - 15:12:16 10° SSW 15:16:22 28° SSE 15:20:28 10° E daylight
29 Nov - 16:53:21 10° WSW 16:58:05 59° SSE 17:02:47 10° E visible
29 Nov - 18:35:21 10° W 18:40:05 61° S 18:44:47 10° ESE visible
29 Nov - 20:17:39 10° W 20:21:51 31° SSW 20:26:00 10° SSE visible
30 Nov - 13:57:51 10° S 14:00:42 16° SE 14:03:33 10° ESE daylight
30 Nov - 15:37:33 10° SW 15:42:05 43° SSE 15:46:38 10° E daylight
30 Nov - 17:19:14 10° W 17:24:00 66° S 17:28:45 10° E visible
30 Nov - 19:01:21 10° W 19:05:58 48° SSW 19:10:32 10° SE visible
30 Nov - 20:44:06 10° W 20:47:27 19° SW 20:50:46 10° S visible
01 Dec - 14:22:14 10° SSW 14:26:14 27° SSE 14:30:16 10° E daylight
01 Dec - 16:03:12 10° WSW 16:07:56 57° SSE 16:12:38 10° E daylight
01 Dec - 17:45:11 10° W 17:49:56 62° S 17:54:39 10° ESE visible
01 Dec - 19:27:27 10° W 19:31:44 33° SSW 19:35:58 10° SE visible
02 Dec - 13:07:57 10° S 13:10:36 15° SE 13:13:15 10° ESE daylight
02 Dec - 14:47:26 10° SW 14:51:57 41° SSE 14:56:28 10° E daylight
02 Dec - 16:29:05 10° WSW 16:33:51 66° S 16:38:36 10° E visible
02 Dec - 18:11:11 10° W 18:15:50 50° SSW 18:20:26 10° ESE visible
02 Dec - 19:53:51 10° W 19:57:21 20° SW 20:00:49 10° S visible
03 Dec - 13:32:11 10° SSW 13:36:07 26° SSE 13:40:04 10° E daylight
03 Dec - 15:13:04 10° WSW 15:17:47 56° SSE 15:22:29 10° E daylight
03 Dec - 16:55:02 10° W 16:59:48 63° S 17:04:31 10° ESE visible
03 Dec - 18:37:16 10° W 18:41:36 35° SSW 18:45:54 10° SE visible
03 Dec - 20:21:36 10° WSW 20:22:46 11° SW 20:23:58 10° SSW visible
04 Dec - 12:18:06 10° SSE 12:20:30 14° SE 12:22:55 10° ESE daylight
04 Dec - 13:57:20 10° SW 14:01:49 39° SSE 14:06:18 10° E daylight
04 Dec - 15:38:55 10° WSW 15:43:42 65° S 15:48:27 10° E daylight
04 Dec - 17:21:01 10° W 17:25:41 52° SSW 17:30:19 10° ESE visible
04 Dec - 19:03:36 10° W 19:07:14 22° SW 19:10:50 10° SSE visible
